Location: Nordegg
(52.4712°N, 116.0743°W)
Time: 13:33:03
(UTC+00:00)

Envisat - Pass Details

Date: 04 December 2021
Orbit: 764 x 766 km, 98.2° (Epoch: 26 January)

Event Time Altitude Azimuth Distance (km) Brightness Sun altitude
Rises 12:10:50 0° 20° (NNE) 3,248 6.5 -30.2°
Reaches altitude 10° 12:13:19 10° 29° (NNE) 2,316 5.8 -29.8°
Maximum altitude 12:18:02 37° 96° (E) 1,191 4.4 -29.1°
Drops below altitude 10° 12:22:42 10° 163° (SSE) 2,299 5.6 -28.4°
Sets 12:25:10 0° 172° (S) 3,220 6.3 -28.0°
